Home > Weather > Onex > Past weeks

Flag for Switzerland Past Weather in Onex, Geneva, Switzerland — Yesterday and Last 2 Weeks

Now
86 °F

Sunny.


Feels Like: 85 °F
Forecast: 60 / 75 °F
Wind: 2 mph from Northwest

Location: Geneva Cointrin Airport

Current Time: Aug 28, 2016 at 6:45:57 PM

Latest Report: Aug 28, 2016 at 5:50 PM


Visibility: 10 mi

Pressure: 30.07 "Hg

Humidity: 38%

Dew Point: 57 °F

Location of OnexLocation

Past Weather in Onex — Graph

°F

Onex Temperature Yesterday

Maximum temperature yesterday: 91 °F (at 3:20 PM)
Minimum temperature yesterday: 63 °F (at 7:20 AM)
Average temperature yesterday: 78 °F

High & Low Weather Summary for the Past Weeks

 TemperatureHumidityPressure
High91 °F (Aug 25, 3:20 PM)100% (Aug 14, 5:20 AM)30.39 "Hg (Aug 14, 5:20 AM)
Low48 °F (Aug 22, 4:20 AM)26% (Aug 28, 3:20 PM)29.86 "Hg (Aug 17, 4:50 PM)
Average71 °F66%30.10 "Hg
* Reported Aug 13 5:20 PM — Aug 28 5:20 PM, Onex, Weather by CustomWeather, © 2016

Note: Actual official high and low records may vary slightly from our data, if they occured in-between our weather recording intervals... More about our weather records

Advertising

Onex Weather History for the Previous 24 Hours

Scroll right to see more
 ConditionsComfort  
Time TempWeatherWind HumidityBarometerVisibility
5:20 PM
Sun, Aug 28
86 °FSunny.6 mph35%30.07 "Hg10 mi
4:50 PM88 °FBroken clouds.7 mph33%30.07 "HgN/A
4:20 PM90 °FScattered clouds.10 mph29%30.07 "HgN/A
3:50 PM90 °FScattered clouds.8 mph27%30.07 "HgN/A
3:20 PM91 °FScattered clouds.9 mph26%30.07 "HgN/A
2:50 PM90 °FScattered clouds.7 mph29%30.07 "HgN/A
2:20 PM90 °FPassing clouds.6 mph31%30.09 "HgN/A
1:50 PM88 °FPassing clouds.7 mph33%30.09 "HgN/A
1:20 PM88 °FPassing clouds.6 mph31%30.09 "HgN/A
12:50 PM86 °FPassing clouds.5 mph40%30.09 "HgN/A
12:20 PM84 °FPassing clouds.3 mph43%30.12 "HgN/A
11:50 AM82 °FPassing clouds.5 mph45%30.12 "HgN/A
11:20 AM81 °FSunny.2 mph45%30.12 "Hg10 mi
10:50 AM79 °FSunny.3 mph48%30.15 "Hg10 mi
10:20 AM77 °FSunny.2 mph54%30.15 "Hg10 mi
9:50 AM75 °FSunny.2 mph54%30.15 "Hg10 mi
9:20 AM75 °FSunny.2 mph57%30.15 "Hg10 mi
8:50 AM72 °FSunny.1 mph69%30.15 "Hg10 mi
8:20 AM68 °FSunny.2 mph78%30.12 "Hg10 mi
7:50 AM63 °FPassing clouds.1 mph88%30.12 "HgN/A
7:20 AM63 °FPassing clouds.1 mph83%30.12 "HgN/A
6:50 AM63 °FPassing clouds.1 mph88%30.12 "HgN/A
6:20 AM63 °FPassing clouds.1 mph88%30.12 "HgN/A
5:50 AM63 °FPassing clouds.1 mph88%30.12 "HgN/A
5:20 AM64 °FPassing clouds.1 mph83%30.12 "HgN/A
4:50 AM64 °FPassing clouds.2 mph88%30.12 "HgN/A
4:20 AM66 °FPassing clouds.1 mph78%30.12 "HgN/A
3:50 AM66 °FPassing clouds.1 mph83%30.12 "HgN/A
2:50 AM68 °FPassing clouds.3 mph78%30.12 "HgN/A
2:20 AM68 °FPassing clouds.3 mph73%30.12 "HgN/A
1:50 AM70 °FPassing clouds.2 mph69%30.12 "HgN/A
1:20 AM70 °FPassing clouds.5 mph69%30.12 "HgN/A
12:50 AM70 °FPassing clouds.2 mph73%30.12 "HgN/A
11:50 PM
Sat, Aug 27
73 °FPassing clouds.1 mph61%30.12 "HgN/A
11:20 PM77 °FPassing clouds.2 mph54%30.12 "HgN/A
10:50 PM81 °FThunderstorms. Passing clouds.7 mph45%30.12 "HgN/A
10:20 PM81 °FPassing clouds.8 mph45%30.09 "HgN/A
9:50 PM81 °FPassing clouds.8 mph45%30.09 "HgN/A
9:20 PM81 °FPassing clouds.7 mph45%30.09 "HgN/A
8:50 PM82 °FPassing clouds.7 mph42%30.07 "HgN/A
8:20 PM84 °FScattered clouds.7 mph40%30.07 "HgN/A
7:50 PM88 °FPassing clouds.13 mph33%30.07 "HgN/A
7:20 PM88 °FPassing clouds.14 mph33%30.07 "HgN/A
6:50 PM90 °FPassing clouds.15 mph33%30.07 "HgN/A
6:20 PM91 °FPassing clouds.12 mph32%30.07 "HgN/A
Weather by CustomWeather, © 2016

See weather overviewHow to use our weather pages